Check out our new BloomSky Weather System.

Active alerts

Fort Bend, TX
  Details for Fort Bend, TX River Flood Warning  +1 additional alert
Houston, TX
  Details for Houston, TX Wind Advisory
Galveston, TX
  Details for Galveston, TX Wind Advisory


Thunder radar  blitzortung!


Rain radar more information rain snow radar


Visit our other weather sites:

Template documentation
and downloads

And another site



Weather Underground History page Text

Daily Summary for January 12, 2018 Units:  English    Metric   Both
« Previous Day
Next Day »
Daily Weekly Monthly Yearly Custom
  High: Low: Average:
Temperature: TemperatureF °F 30.6 °F 38.5 °F
Dew Point: DewpointF °F 19.9 °F 23.6 °F
Humidity: Humidity % 40 % 55 %
Wind Speed: WindSpeedMPH mph 0.0 mph 4.8 mph
Wind Gust: WindSpeedGustMPH mph - -
Wind:- - NW
Pressure: PressureIn in 30.07 in -
Precipitation: 0.00 in    
Historical Graphs
 
 
Tabular Data for January 12, 2018
Time Temperature Dew Point Pressure Wind Wind Speed Wind Gust Humidity Rainfall Rate (Hourly)
TemperatureF °F DewpointF °F PressureIn in Calm     Humidity % HourlyPrecipIn in
00:12 38.8 °F 25.3 °F 30.08 in NW 17.0 mph 23.0 mph 58 % 0.00 in
00:20 38.7 °F 24.8 °F 30.07 in NNW 8.0 mph 19.0 mph 57 % 0.00 in
00:25 38.5 °F 25.0 °F 30.08 in NNW 4.0 mph 21.0 mph 58 % 0.00 in
00:32 38.3 °F 24.8 °F 30.08 in West 7.0 mph 21.0 mph 58 % 0.00 in
00:43 37.9 °F 24.1 °F 30.08 in WSW 3.0 mph 19.0 mph 57 % 0.00 in
00:49 37.9 °F 24.1 °F 30.08 in NNW 6.0 mph 19.0 mph 57 % 0.00 in
00:54 37.8 °F 24.3 °F 30.08 in NNW 9.0 mph 17.0 mph 58 % 0.00 in
01:09 37.6 °F 23.7 °F 30.09 in NW 8.0 mph 17.0 mph 57 % 0.00 in
01:17 37.2 °F 23.7 °F 30.09 in North 7.0 mph 17.0 mph 58 % 0.00 in
01:25 37.2 °F 23.7 °F 30.09 in NNW 3.0 mph 18.0 mph 58 % 0.00 in
01:30 37.0 °F 23.7 °F 30.08 in NW 5.0 mph 18.0 mph 58 % 0.00 in
01:36 36.9 °F 23.5 °F 30.08 in NW 5.0 mph 19.0 mph 58 % 0.00 in
01:45 36.9 °F 23.9 °F 30.09 in WNW 5.0 mph 19.0 mph 59 % 0.00 in
01:51 36.7 °F 22.8 °F 30.09 in NW 7.0 mph 15.0 mph 57 % 0.00 in
01:56 36.7 °F 22.8 °F 30.09 in NW 6.0 mph 22.0 mph 57 % 0.00 in
02:02 36.3 °F 23.0 °F 30.09 in West 9.0 mph 22.0 mph 58 % 0.00 in
02:10 36.3 °F 22.5 °F 30.10 in NW 5.0 mph 22.0 mph 57 % 0.00 in
02:15 36.1 °F 22.8 °F 30.10 in NW 3.0 mph 19.0 mph 58 % 0.00 in
02:22 36.0 °F 23.0 °F 30.09 in NW 3.0 mph 19.0 mph 59 % 0.00 in
02:27 36.0 °F 23.0 °F 30.09 in NNW 8.0 mph 16.0 mph 59 % 0.00 in
02:35 35.8 °F 22.8 °F 30.10 in NNW 10.0 mph 16.0 mph 59 % 0.00 in
02:42 35.6 °F 22.6 °F 30.10 in North 7.0 mph 13.0 mph 59 % 0.00 in
02:54 35.2 °F 22.8 °F 30.10 in NW 3.0 mph 15.0 mph 60 % 0.00 in
02:59 35.2 °F 22.8 °F 30.10 in NNW 7.0 mph 15.0 mph 60 % 0.00 in
03:12 35.1 °F 22.6 °F 30.11 in NE 8.0 mph 16.0 mph 60 % 0.00 in
03:17 35.1 °F 22.6 °F 30.11 in NNW 8.0 mph 16.0 mph 60 % 0.00 in
03:23 34.9 °F 22.8 °F 30.11 in NNW 7.0 mph 14.0 mph 61 % 0.00 in
03:30 34.9 °F 22.5 °F 30.12 in WSW 5.0 mph 16.0 mph 60 % 0.00 in
03:43 34.7 °F 22.6 °F 30.13 in NNW 12.0 mph 16.0 mph 61 % 0.00 in
03:48 34.5 °F 22.5 °F 30.12 in NW 7.0 mph 15.0 mph 61 % 0.00 in
03:53 34.3 °F 22.3 °F 30.13 in NW 4.0 mph 14.0 mph 61 % 0.00 in
04:00 34.3 °F 22.3 °F 30.12 in NNW 11.0 mph 12.0 mph 61 % 0.00 in
04:05 34.2 °F 22.1 °F 30.12 in NNW 5.0 mph 13.0 mph 61 % 0.00 in
04:19 33.6 °F 21.6 °F 30.13 in NNW 4.0 mph 13.0 mph 61 % 0.00 in
04:35 33.4 °F 21.4 °F 30.14 in NNW 7.0 mph 15.0 mph 61 % 0.00 in
04:44 33.3 °F 21.7 °F 30.14 in NNW 2.0 mph 15.0 mph 62 % 0.00 in
04:49 33.1 °F 21.6 °F 30.14 in NW 11.0 mph 15.0 mph 62 % 0.00 in
05:07 32.7 °F 20.8 °F 30.15 in NNW 9.0 mph 22.0 mph 61 % 0.00 in
05:18 32.5 °F 21.0 °F 30.16 in NW 8.0 mph 15.0 mph 62 % 0.00 in
05:24 32.4 °F 20.5 °F 30.16 in NNW 2.0 mph 15.0 mph 61 % 0.00 in
05:30 32.4 °F 20.5 °F 30.17 in NNW 13.0 mph 14.0 mph 61 % 0.00 in
05:35 32.4 °F 20.8 °F 30.17 in WNW 2.0 mph 15.0 mph 62 % 0.00 in
05:48 32.0 °F 20.8 °F 30.17 in North 9.0 mph 22.0 mph 63 % 0.00 in
05:55 31.8 °F 20.7 °F 30.17 in WNW 3.0 mph 22.0 mph 63 % 0.00 in
06:04 31.8 °F 20.3 °F 30.18 in NNW 5.0 mph 17.0 mph 62 % 0.00 in
06:24 31.5 °F 20.3 °F 30.18 in NW 4.0 mph 15.0 mph 63 % 0.00 in
06:33 31.5 °F 20.3 °F 30.19 in WNW 4.0 mph 14.0 mph 63 % 0.00 in
07:22 30.6 °F 20.1 °F 30.21 in NNW 7.0 mph 13.0 mph 65 % 0.00 in
07:39 30.7 °F 19.9 °F 30.21 in NNW 2.0 mph 15.0 mph 64 % 0.00 in
07:52 30.7 °F 19.9 °F 30.21 in NW 4.0 mph 15.0 mph 64 % 0.00 in
08:07 31.1 °F 20.3 °F 30.21 in NW 5.0 mph 11.0 mph 64 % 0.00 in
08:30 31.8 °F 20.3 °F 30.23 in NW 7.0 mph 12.0 mph 62 % 0.00 in
08:42 32.2 °F 20.3 °F 30.24 in NW 6.0 mph 16.0 mph 61 % 0.00 in
08:48 32.5 °F 20.7 °F 30.24 in NW 6.0 mph 16.0 mph 61 % 0.00 in
08:57 32.5 °F 20.1 °F 30.25 in NW 5.0 mph 16.0 mph 60 % 0.00 in
09:05 33.1 °F 19.9 °F 30.26 in NW 4.0 mph 16.0 mph 58 % 0.00 in
09:10 33.1 °F 20.3 °F 30.25 in North 4.0 mph 15.0 mph 59 % 0.00 in
09:20 33.6 °F 20.8 °F 30.25 in NNW 9.0 mph 12.0 mph 59 % 0.00 in
09:26 34.2 °F 20.8 °F 30.25 in NNW 5.0 mph 12.0 mph 58 % 0.00 in
09:42 34.3 °F 21.0 °F 30.25 in North 1.0 mph 18.0 mph 58 % 0.00 in
09:48 35.1 °F 21.4 °F 30.25 in NNW 10.0 mph 18.0 mph 57 % 0.00 in
10:27 36.9 °F 21.7 °F 30.26 in NNW 9.0 mph 17.0 mph 54 % 0.00 in
10:45 37.8 °F 22.1 °F 30.26 in NW 5.0 mph 15.0 mph 53 % 0.00 in
10:55 38.7 °F 23.4 °F 30.26 in NNW 6.0 mph 17.0 mph 54 % 0.00 in
11:00 38.8 °F 22.6 °F 30.26 in West 7.0 mph 17.0 mph 52 % 0.00 in
11:05 39.2 °F 22.6 °F 30.26 in NNW 5.0 mph 15.0 mph 51 % 0.00 in
11:12 39.6 °F 23.4 °F 30.26 in West 5.0 mph 15.0 mph 52 % 0.00 in
11:17 39.7 °F 23.2 °F 30.26 in NNW 11.0 mph 14.0 mph 51 % 0.00 in
11:23 40.1 °F 23.4 °F 30.26 in North 6.0 mph 14.0 mph 51 % 0.00 in
11:29 40.3 °F 22.6 °F 30.26 in NNW 8.0 mph 14.0 mph 49 % 0.00 in
11:34 40.5 °F 22.8 °F 30.26 in NW 6.0 mph 13.0 mph 49 % 0.00 in
11:41 40.8 °F 23.2 °F 30.25 in West 2.0 mph 16.0 mph 49 % 0.00 in
11:52 41.0 °F 23.7 °F 30.25 in WSW 7.0 mph 16.0 mph 50 % 0.00 in
12:03 41.9 °F 24.1 °F 30.24 in NNW 6.0 mph 15.0 mph 49 % 0.00 in
12:10 42.4 °F 24.6 °F 30.23 in West 7.0 mph 13.0 mph 49 % 0.00 in
12:24 42.3 °F 23.9 °F 30.23 in NW 7.0 mph 18.0 mph 48 % 0.00 in
12:37 43.0 °F 25.2 °F 30.22 in West 2.0 mph 14.0 mph 49 % 0.00 in
12:50 43.3 °F 25.0 °F 30.22 in WNW 5.0 mph 13.0 mph 48 % 0.00 in
12:58 43.7 °F 24.8 °F 30.21 in NNW 2.0 mph 13.0 mph 47 % 0.00 in
13:22 44.8 °F 25.3 °F 30.19 in NNW 8.0 mph 17.0 mph 46 % 0.00 in
13:45 45.0 °F 25.0 °F 30.19 in WNW 7.0 mph 16.0 mph 45 % 0.00 in
13:55 45.3 °F 25.2 °F 30.19 in North 4.0 mph 17.0 mph 45 % 0.00 in
14:00 45.7 °F 26.1 °F 30.19 in WNW 5.0 mph 17.0 mph 46 % 0.00 in
14:07 45.9 °F 25.2 °F 30.19 in NW 7.0 mph 13.0 mph 44 % 0.00 in
14:12 45.9 °F 25.7 °F 30.19 in NW 5.0 mph 13.0 mph 45 % 0.00 in
14:30 46.0 °F 24.8 °F 30.19 in NNW 7.0 mph 16.0 mph 43 % 0.00 in
14:42 46.6 °F 25.3 °F 30.18 in NNW 10.0 mph 17.0 mph 43 % 0.00 in
14:52 46.9 °F 26.2 °F 30.18 in NW 4.0 mph 17.0 mph 44 % 0.00 in
15:04 47.1 °F 24.6 °F 30.18 in NNW 10.0 mph 12.0 mph 41 % 0.00 in
15:11 46.9 °F 25.0 °F 30.19 in WNW 7.0 mph 16.0 mph 42 % 0.00 in
15:18 47.3 °F 25.3 °F 30.19 in North 10.0 mph 16.0 mph 42 % 0.00 in
15:27 47.1 °F 25.7 °F 30.19 in NW 1.0 mph 12.0 mph 43 % 0.00 in
15:37 47.1 °F 25.2 °F 30.19 in NNW 6.0 mph 15.0 mph 42 % 0.00 in
15:57 47.3 °F 25.3 °F 30.19 in NNW 3.0 mph 14.0 mph 42 % 0.00 in
16:07 47.7 °F 25.2 °F 30.19 in NNW 11.0 mph 12.0 mph 41 % 0.00 in
16:13 47.3 °F 24.8 °F 30.19 in NNW 7.0 mph 14.0 mph 41 % 0.00 in
16:23 47.5 °F 24.4 °F 30.20 in NNW 9.0 mph 14.0 mph 40 % 0.00 in
16:37 47.3 °F 25.3 °F 30.20 in NNW 5.0 mph 11.0 mph 42 % 0.00 in
16:49 47.1 °F 25.7 °F 30.21 in NNW 2.0 mph 12.0 mph 43 % 0.00 in
16:56 47.1 °F 25.7 °F 30.21 in NW 7.0 mph 9.0 mph 43 % 0.00 in
17:06 46.8 °F 24.8 °F 30.22 in NNE 3.0 mph 10.0 mph 42 % 0.00 in
17:12 46.4 °F 25.2 °F 30.22 in NNW 5.0 mph 10.0 mph 43 % 0.00 in
17:29 45.7 °F 25.0 °F 30.22 in NNW 5.0 mph 6.0 mph 44 % 0.00 in
17:41 45.1 °F 25.5 °F 30.23 in NW 2.0 mph 7.0 mph 46 % 0.00 in
17:49 45.0 °F 25.9 °F 30.23 in NW 3.0 mph 6.0 mph 47 % 0.00 in
17:56 44.6 °F 25.7 °F 30.24 in NNW 2.0 mph 6.0 mph 47 % 0.00 in
18:05 44.2 °F 25.7 °F 30.24 in NNW 1.0 mph 6.0 mph 48 % 0.00 in
18:15 43.7 °F 26.2 °F 30.25 in Calm   6.0 mph 50 % 0.00 in
18:27 43.0 °F 26.1 °F 30.24 in NNW 1.0 mph 4.0 mph 51 % 0.00 in
18:32 42.8 °F 26.4 °F 30.25 in Calm   4.0 mph 52 % 0.00 in
18:38 42.6 °F 26.2 °F 30.25 in NNW 1.0 mph 3.0 mph 52 % 0.00 in
18:49 42.4 °F 26.6 °F 30.26 in NNW 2.0 mph 3.0 mph 53 % 0.00 in
18:54 42.4 °F 26.6 °F 30.26 in NW 1.0 mph 3.0 mph 53 % 0.00 in
19:06 42.1 °F 26.6 °F 30.26 in NW 1.0 mph 3.0 mph 54 % 0.00 in
19:26 40.8 °F 26.4 °F 30.27 in Calm   1.0 mph 56 % 0.00 in
19:33 40.8 °F 26.8 °F 30.27 in Calm   2.0 mph 57 % 0.00 in
19:45 40.1 °F 27.0 °F 30.28 in Calm   1.0 mph 59 % 0.00 in
20:02 39.6 °F 27.1 °F 30.29 in Calm   1.0 mph 61 % 0.00 in
20:08 39.4 °F 27.1 °F 30.29 in NW 1.0 mph 1.0 mph 61 % 0.00 in
20:13 39.4 °F 27.5 °F 30.29 in NW 1.0 mph 2.0 mph 62 % 0.00 in
20:18 39.2 °F 27.0 °F 30.30 in NW 1.0 mph 3.0 mph 61 % 0.00 in
20:33 39.4 °F 26.2 °F 30.30 in NNW 2.0 mph 3.0 mph 59 % 0.00 in
20:40 39.4 °F 26.2 °F 30.30 in Calm   4.0 mph 59 % 0.00 in
20:47 39.2 °F 26.1 °F 30.31 in Calm   4.0 mph 59 % 0.00 in
21:01 39.0 °F 25.9 °F 30.32 in NW 1.0 mph 3.0 mph 59 % 0.00 in
21:10 38.8 °F 25.7 °F 30.32 in NW 1.0 mph 5.0 mph 59 % 0.00 in
21:15 38.8 °F 25.7 °F 30.33 in Calm   5.0 mph 59 % 0.00 in
21:37 38.1 °F 25.9 °F 30.33 in Calm   3.0 mph 61 % 0.00 in
21:42 37.9 °F 25.7 °F 30.34 in Calm   3.0 mph 61 % 0.00 in
21:58 37.6 °F 25.7 °F 30.35 in NNW 1.0 mph 2.0 mph 62 % 0.00 in
22:04 37.2 °F 25.3 °F 30.35 in NNW 1.0 mph 2.0 mph 62 % 0.00 in
22:23 37.6 °F 25.3 °F 30.35 in NNW 1.0 mph 4.0 mph 61 % 0.00 in
22:55 37.2 °F 24.6 °F 30.36 in North 4.0 mph 5.0 mph 60 % 0.00 in
23:02 37.2 °F 24.6 °F 30.36 in Calm   6.0 mph 60 % 0.00 in
23:12 37.0 °F 24.4 °F 30.37 in NNW 2.0 mph 6.0 mph 60 % 0.00 in
23:27 37.0 °F 24.4 °F 30.37 in North 4.0 mph 5.0 mph 60 % 0.00 in
23:42 36.9 °F 24.3 °F 30.38 in NNW 1.0 mph 6.0 mph 60 % 0.00 in
23:47 36.7 °F 24.1 °F 30.38 in NW 1.0 mph 5.0 mph 60 % 0.00 in
23:56 36.5 °F 24.3 °F 30.38 in Calm   5.0 mph 61 % 0.00 in
Spring, Texas: Villages of Bridgestone
Compliments of Weather Underground - 2 mb

Script developed by  Jim McMurry - jmcmurry@mwt.net Adapted for the template by  Wim van der Kuil - Leuven-Template.eu

You find our weather info also at:

UK Metoffice

WeatherCloud

Weather Underground

Mid-South Weather Network

AWEKAS

Citizen Weather Observer Program (CWOP)

HAMweather, WeatherForYou, PWS Weather

Equipment we use:

Weather-station
Davis Vantage Vue

Weather-program
Meteohub

Weather-server
Debian 7.9 x86 (Guest)

Provider
DreamHost

Davis Vantage Vue

Meteohub

Debian 7.9 x86 (Guest)

DreamHost